Date String (YYYY-MM-DD hh:mm:ss) UTC,Instrument flags,Ambient pressure (hPa),Sample flow (lpm),Bypass flow (lpm),Sample temperature (°C),Ambient temperature (°C),ASC tube jacket temperature (°C),LED temperature (°C),Box temperature (°C),Sample RH (%),Span deviation,Mass concentration (μg/m³),Mass concentration (μg/m³),Mass concentration (μg/m³)
DateTimeUTC,F1_M11,P_M11,Q1_M11,Q2_M11,T1_M11,T2_M11,T3_M11,T4_M11,T5_M11,U1_M11,ZSPAN_M11,X2_M11,X0_M11,X1_M11
2022-10-30 09:00:00,,0828.9,5.01,0.00,24.8,23.1,00.0,33.7,26.6,08.9,0000.0,0004.16,0007.57,0003.85
2022-10-30 09:01:00,,0828.9,4.98,0.00,24.8,23.0,00.0,33.7,26.4,08.9,0000.0,0004.15,0008.23,0003.85
2022-10-30 09:02:00,,0828.9,5.01,0.00,24.7,23.0,00.0,33.7,26.4,08.9,0000.0,0004.17,0008.76,0003.87
2022-10-30 09:03:00,,0828.9,4.99,0.00,24.7,23.0,00.0,33.7,26.4,09.0,0000.0,0004.22,0009.18,0003.90
2022-10-30 09:04:00,,0828.9,5.00,0.00,24.7,23.0,00.0,33.7,26.4,09.0,0000.0,0004.24,0009.26,0003.92
2022-10-30 09:05:00,,0828.9,5.01,0.00,24.7,23.0,00.0,33.7,26.4,09.0,0000.0,0004.27,0009.22,0003.94
2022-10-30 09:06:00,,0828.9,5.01,0.00,24.7,23.0,00.0,33.7,26.4,09.0,0000.0,0004.30,0009.13,0003.95
2022-10-30 09:07:00,,0828.8,5.00,0.00,24.7,23.0,00.0,33.7,26.4,09.0,0000.0,0004.29,0009.09,0003.95
2022-10-30 09:08:00,,0828.8,5.00,0.00,24.7,23.0,00.0,33.6,26.5,09.0,0000.0,0004.28,0009.07,0003.96
2022-10-30 09:09:00,,0828.9,4.98,0.00,24.7,22.9,00.0,33.6,26.5,09.0,0000.0,0004.28,0009.23,0003.97
2022-10-30 09:10:00,,0828.8,5.01,0.00,24.7,23.0,00.0,33.6,26.5,09.0,0000.0,0004.32,0009.42,0003.98
2022-10-30 09:11:00,,0828.8,5.01,0.00,24.7,23.0,00.0,33.6,26.5,09.0,0000.0,0004.31,0009.98,0004.00
2022-10-30 09:12:00,,0828.8,4.98,0.00,24.7,23.0,00.0,33.6,26.4,08.9,0000.0,0004.33,0009.54,0004.02
2022-10-30 09:13:00,,0829.0,5.01,0.00,24.7,22.9,00.0,33.6,26.4,08.9,0000.0,0004.35,0009.17,0004.03
2022-10-30 09:14:00,,0829.2,5.01,0.00,24.7,22.9,00.0,33.6,26.4,08.9,0000.0,0004.36,0009.06,0004.03
2022-10-30 09:15:00,,0829.1,5.00,0.00,24.7,22.9,00.0,33.6,26.4,08.9,0000.0,0004.34,0008.79,0004.03
2022-10-30 09:16:00,,0829.0,4.98,0.00,24.6,22.9,00.0,33.6,26.4,08.9,0000.0,0004.32,0008.77,0004.03
2022-10-30 09:17:00,,0829.1,5.00,0.00,24.6,22.9,00.0,33.6,26.4,09.0,0000.0,0004.31,0008.79,0004.02
2022-10-30 09:18:00,,0829.3,5.01,0.00,24.6,22.9,00.0,33.6,26.4,09.0,0000.0,0004.33,0008.82,0004.02
2022-10-30 09:19:00,,0829.3,4.99,0.00,24.6,22.9,00.0,33.6,26.4,09.0,0000.0,0004.34,0008.98,0004.02
2022-10-30 09:20:00,,0829.4,4.99,0.00,24.6,22.9,00.0,33.5,26.3,09.0,0000.0,0004.32,0009.06,0004.01
2022-10-30 09:21:00,,0829.2,5.01,0.00,24.6,22.9,00.0,33.5,26.3,09.0,0000.0,0004.31,0008.96,0004.00
2022-10-30 09:22:00,,0829.3,5.00,0.00,24.6,22.9,00.0,33.5,26.3,09.0,0000.0,0004.32,0008.53,0004.00
2022-10-30 09:23:00,,0829.2,5.00,0.00,24.6,22.9,00.0,33.5,26.3,09.0,0000.0,0004.32,0008.43,0004.00
2022-10-30 09:24:00,,0829.3,5.01,0.00,24.6,22.9,00.0,33.5,26.3,09.0,0000.0,0004.30,0008.07,0004.00
2022-10-30 09:25:00,,0828.8,4.97,0.00,24.6,22.8,00.0,33.5,26.3,09.0,0000.0,0004.30,0007.95,0004.00
2022-10-30 09:26:00,,0828.8,5.01,0.00,24.6,22.8,00.0,33.5,26.4,09.0,0000.0,0004.29,0007.95,0003.99
2022-10-30 09:27:00,,0828.7,5.01,0.00,24.6,22.8,00.0,33.5,26.3,09.0,0000.0,0004.30,0007.92,0004.00
2022-10-30 09:28:00,,0828.7,4.98,0.00,24.6,22.8,00.0,33.5,26.3,09.0,0000.0,0004.31,0007.89,0004.02
2022-10-30 09:29:00,,0828.7,5.01,0.00,24.6,22.8,00.0,33.5,26.4,09.0,0000.0,0004.31,0007.93,0004.02
2022-10-30 09:30:00,,0828.7,5.01,0.00,24.5,22.8,00.0,33.5,26.3,09.0,0000.0,0004.33,0007.80,0004.03
2022-10-30 09:31:00,,0829.1,4.98,0.00,24.5,22.8,00.0,33.5,26.3,09.0,0000.0,0004.34,0007.51,0004.04
2022-10-30 09:32:00,,0829.2,5.01,0.00,24.5,22.8,00.0,33.4,26.3,09.1,0000.0,0004.34,0007.50,0004.04
2022-10-30 09:33:00,,0829.2,5.00,0.00,24.5,22.8,00.0,33.4,26.2,09.1,0000.0,0004.34,0007.26,0004.04
2022-10-30 09:34:00,,0829.0,5.00,0.00,24.5,22.8,00.0,33.4,26.2,09.1,0000.0,0004.32,0007.07,0004.03
2022-10-30 09:35:00,,0828.6,5.01,0.00,24.5,22.8,00.0,33.4,26.2,09.1,0000.0,0004.31,0006.95,0004.02
2022-10-30 09:36:00,,0828.6,4.98,0.00,24.5,22.8,00.0,33.4,26.2,09.1,0000.0,0004.29,0006.85,0004.01
2022-10-30 09:37:00,,0828.5,5.01,0.00,24.5,22.8,00.0,33.4,26.2,09.1,0000.0,0004.29,0006.94,0004.01
2022-10-30 09:38:00,,0828.6,5.01,0.00,24.5,22.8,00.0,33.4,26.2,09.1,0000.0,0004.30,0007.69,0004.00
2022-10-30 09:39:00,,0828.8,5.01,0.00,24.4,22.8,00.0,33.4,26.1,09.1,0000.0,0004.29,0007.70,0003.98
2022-10-30 09:40:00,,0828.9,4.98,0.00,24.4,22.8,00.0,33.4,26.2,09.1,0000.0,0004.30,0007.71,0003.98
2022-10-30 09:41:00,,0829.2,5.00,0.00,24.4,22.8,00.0,33.4,26.2,09.1,0000.0,0004.30,0007.71,0003.98
2022-10-30 09:42:00,,0828.8,5.01,0.00,24.4,22.8,00.0,33.4,26.2,09.1,0000.0,0004.30,0008.08,0003.99
2022-10-30 09:43:00,,0829.0,5.00,0.00,24.4,22.7,00.0,33.4,26.1,09.1,0000.0,0004.30,0008.18,0003.99
2022-10-30 09:44:00,,0829.0,5.01,0.00,24.4,22.7,00.0,33.3,26.1,09.1,0000.0,0004.30,0008.19,0003.99
2022-10-30 09:45:00,,0829.1,5.00,0.00,24.4,22.7,00.0,33.3,26.1,09.1,0000.0,0004.33,0008.71,0004.00
2022-10-30 09:46:00,,0828.8,4.98,0.00,24.4,22.7,00.0,33.3,26.1,09.1,0000.0,0004.34,0008.97,0004.00
2022-10-30 09:47:00,,0828.9,5.01,0.00,24.4,22.7,00.0,33.3,26.1,09.1,0000.0,0004.35,0008.98,0004.01
2022-10-30 09:48:00,,0828.7,5.01,0.00,24.4,22.7,00.0,33.3,26.2,09.1,0000.0,0004.36,0009.57,0004.01
2022-10-30 09:49:00,,0828.8,5.01,0.00,24.4,22.7,00.0,33.3,26.1,09.2,0000.0,0004.34,0009.32,0004.00
2022-10-30 09:50:00,,0828.8,4.98,0.00,24.4,22.7,00.0,33.3,26.1,09.2,0000.0,0004.35,0009.17,0004.00
2022-10-30 09:51:00,,0828.7,5.00,0.00,24.4,22.6,00.0,33.3,26.1,09.1,0000.0,0004.36,0009.36,0004.00
2022-10-30 09:52:00,,0828.8,5.01,0.00,24.3,22.6,00.0,33.3,26.1,09.2,0000.0,0004.36,0009.47,0004.00
2022-10-30 09:53:00,,0828.5,5.01,0.00,24.3,22.6,00.0,33.3,26.0,09.2,0000.0,0004.35,0010.35,0004.00
2022-10-30 09:54:00,,0828.7,5.01,0.00,24.3,22.6,00.0,33.3,26.0,09.2,0000.0,0004.33,0010.43,0003.99
2022-10-30 09:55:00,,0828.8,4.98,0.00,24.3,22.6,00.0,33.3,26.1,09.2,0000.0,0004.32,0010.44,0003.99
2022-10-30 09:56:00,,0828.7,5.00,0.00,24.3,22.6,00.0,33.3,26.1,09.2,0000.0,0004.30,0010.18,0003.98
2022-10-30 09:57:00,,0829.0,5.00,0.00,24.3,22.6,00.0,33.3,26.1,09.2,0000.0,0004.30,0009.99,0003.98
2022-10-30 09:58:00,,0828.6,5.01,0.00,24.3,22.6,00.0,33.3,26.1,09.2,0000.0,0004.31,0010.53,0003.98
2022-10-30 09:59:00,,0828.6,4.98,0.00,24.3,22.6,00.0,33.2,26.1,09.2,0000.0,0004.30,0010.39,0003.97
